Weather in Timiryazevskoe

Russia / Tomsk District     56°28′42″N   84°53′05″E
temp.,
°C
wind,
m/s
gust,
m/s
humid.,
%
clouds,
%
prec.,
mm/h
press.,
hPa
HPBL,
m
27 january, thu
thu2701:00−19se1110070 0.1 10299
04:00−20se1110091 0.1 10319
07:00−20sse1110069 0.1 10329
10:00−21sse1110087 0.1 103423
13:00−15ssw2393100 0.1 1034226
16:00−14ssw2392100 0.1 1035375
19:00−20sse2210092 0.1 103617
22:00−23sse2110093 0.0 103717
28 january, fri
fri2801:00−24sse22100100 0.1 103728
04:00−26sse21100100 0.0 103727
07:00−25sse2210089 0.1 103636
10:00−24s2510099 0.0 103691
13:00−18s359599 0.1 1035227
16:00−15s3593100 0.0 1034314
19:00−18sse259711 0.0 103495
22:00−21s2510071 0.0 103472
29 january, sat
sat2901:00−21s2310085 0.0 103358
04:00−21s24100100 0.0 103367
07:00−18s2598100 0.0 1032124
10:00−18s2598100 0.0 1033127
13:00−13ssw359080 0.0 1033263
16:00−12ssw259275 0.0 1033329
19:00−19sse2210061 0.0 103314
22:00−21sse2110067 0.0 103425
30 january, sun
sun3001:00−23s1110090 0.0 103417
04:00−24sse1110094 0.0 103512
07:00−25sse1110090 0.0 103413
10:00−24se1110048 0.0 103415
13:00−12sse12875 0.0 1032153
16:00−9se13895 0.0 1031179
19:00−17ese229948 0.0 103114
22:00−17se2296100 0.0 103038
31 january, mon
mon3101:00−17se229590 0.0 103030
04:00−14se2592100 0.0 102995
07:00−12sse2895100 0.0 1028168
10:00−9s31090100 0.0 1028307
13:00−8s4991100 0.0 1029349
16:00−8s3793100 0.0 1029355
19:00−8s3895100 0.1 1030309
22:00−10ssw3797100 0.0 1031166